Location: Houhaj�rvi
(61.2667°N, 23.0167°E)
Time: 16:38:28
(UTC+00:00)

Cosmos 540 Rocket - Pass Details

Date: 13 December 2019
Orbit: 741 x 753 km, 74.1° (Epoch: 22 January)

Event Time Altitude Azimuth Distance (km) Brightness Sun altitude
Rises 17:23:59 0° 325° (NW) 3,196 7.2 -27.6°
Reaches altitude 10° 17:26:21 10° 326° (NW) 2,268 6.3 -27.9°
Enters shadow 17:30:24 57° 332° (NNW) 881 3.8 -28.3°
